993  
ASUS41 KALY 221610  
RWRALY  
 
NEW YORK STATE HOURLY WEATHER ROUNDUP  
NATIONAL WEATHER SERVICE ALBANY NY  
1200 PM EDT THU APR 22 2021  
 
NOTE: "FAIR" INDICATES FEW OR NO CLOUDS BELOW 12,000 FEET WITH NO  
SIGNIFICANT WEATHER AND/OR NO S TO VISIBILITY
.  
 
NYZ032-033-038>043-046>054-057>066-NYZ062>081-082-084-221700-  
EAST  
 
 
CITY SKY/WX TMP DP RH WIND PRES REMARKS
 
ALBANY PTSUNNY 35 21 56 W22G36 29.75F WCI 23  
GLENS FALLS CLOUDY 35 21 56 W12G21 29.70S WCI 27  
POUGHKEEPSIE PTSUNNY 42 18 37 W18G29 29.80S  
NEWBURGH PTSUNNY 41 21 45 W29G40 29.81S  
MONTGOMERY CLOUDY 40 19 43 W17G28 29.82S WCI 31  
WHITE PLAINS PTSUNNY 41 18 39 W18G35 29.81S  
ISLIP PTSUNNY 43 18 36 W21G35 29.82F  
NEW YORK CITY PTSUNNY 43 16 33 W23G33 29.85S  
CENTRAL PARK CLOUDY 43 15 32 SW10G21 29.88S  

 
 
NYZ005>009-017-018-044>046-055-056-221700-  
CENTRAL  
 
 
CITY SKY/WX TMP DP RH WIND PRES REMARKS
 
FULTON N/A 36 20 52 W23G36 29.86R WCI 24  
SYRACUSE PTSUNNY 37 21 52 W22G36 29.85R WCI 26  
ROME CLOUDY 37 20 50 W25G36 29.81R WCI 25  
ELMIRA LGT SNOW 37 23 56 W14G22 29.89R WCI 28  
BINGHAMTON LGT SNOW 31 25 78 NW13G25 29.81S WCI 21  
MONTICELLO LGT RAIN 36 18 48 W17G31 29.79S WCI 26  

 
 
NYZ026>034-041>043-087-221700-  
NORTH  
 
 
CITY SKY/WX TMP DP RH WIND PRES REMARKS
 
WATERTOWN CLOUDY 36 19 50 W18G24 29.81S WCI 26  
FORT DRUM NOT AVBL  
OGDENSBURG PTSUNNY 36 18 48 W15G24 29.74S WCI 26  
MASSENA MOSUNNY 33 12 41 W21G31 29.74S WCI 21  
SARANAC LAKE LGT SNOW 25 18 74 VRB7G18 29.62S WCI 17  
PLATTSBURGH MIX PCPN 32 19 58 NW17G25 29.67S WCI 21  

 
 
NYZ001>004-010>016-019>021-085-221700-  
WEST  
 
 
CITY SKY/WX TMP DP RH WIND PRES REMARKS
 
NIAGARA FALLS PTSUNNY 37 25 61 NW21G26 29.95S WCI 26  
BUFFALO PTSUNNY 37 21 52 W15G30 29.94F WCI 28  
DUNKIRK PTSUNNY 38 24 57 W18G29 30.01R WCI 28  
JAMESTOWN CLOUDY 33 18 53 W16G40 29.96S WCI 23  
WELLSVILLE LGT SNOW 30 24 78 NW21G30 29.89S WCI 17  
ROCHESTER PTSUNNY 38 18 44 NW20G29 29.91S WCI 28  
PENN YAN CLOUDY 35 24 64 W14G23 29.90R WCI 26  

 
 
KEY  
WCI = WIND CHILL INDEX  
VSB = VISIBILITY  
HX = HEAT INDEX  

 
 
 
CLICK HERE TO GO TO PREVIOUS BULLETINS.

The Nexlab NY Page
The Nexlab VT Page
The Nexlab MA Page
The Nexlab CT Page Main Text Page